Location: Unnamed
(23.5608°S, 46.6833°W)
Time: 02:30:03
(UTC-03:00)

ISS - Visible Passes

Search period start: 02 December 2022 00:00
Search period end: 12 December 2022 00:00
Orbit: 415 x 420 km, 51.6° (Epoch: 01 December)

Date Brightness Start Highest point End Pass type
(mag) Time Alt. Az. Time Alt. Az. Time Alt. Az.
10 Dec -0.4 04:39:51 10° S 04:41:53 15° SE 04:43:56 10° E visible
10 Dec -3.1 19:38:19 10° NNW 19:41:21 32° NE 19:44:25 10° ESE visible
10 Dec -0.4 21:16:20 10° WSW 21:18:10 14° SW 21:20:00 10° S visible
11 Dec -1.3 20:27:16 10° WNW 20:30:06 25° SW 20:32:58 10° SSE visible
